Clearwater, FL

1:37 AM EST on February 07, 2016 (GMT -0500)
Saint Petersburg-Clearwater International

Weather History for KPIE - July, 2013

Change the Weather History Date:

Friday, July 5, 2013

  Actual Average Record
Temperature  
Mean Temperature 82 °F -  
Max Temperature 90 °F 90 °F 95 °F (1987)
Min Temperature 75 °F 76 °F 64 °F (2015)
Cooling Degree Days 17    
Growing Degree Days 32 (Base 50)    
Moisture  
Dew Point 74 °F    
Average Humidity 83    
Maximum Humidity 94    
Minimum Humidity 59    
Precipitation  
Precipitation 0.16 in - - ()
Sea Level Pressure  
Sea Level Pressure 30.10 in    
Wind  
Wind Speed 9 mph (SE)    
Max Wind Speed 29 mph    
Max Gust Speed 45 mph    
Visibility 9 miles    
Events Rain , Thunderstorm    
Averages and records for this station are not official NWS values.
T = Trace of Precipitation, MM = Missing Value Source: NWS Daily Summary

Daily Weather History Graph

Daily Weather History Graph

Search for Another Location

Airport or City:

Trip Planner

Search our weather history database for the weather conditions in past years. The results will help you decide how hot, cold, wet, or windy it might be!

Date:

Astronomy

Jul. 05, 2013 Rise Set
Actual Time 6:39 AM EDT 8:30 PM EDT
Civil Twilight 6:13 AM EDT 8:57 PM EDT
Nautical Twilight 5:41 AM EDT 9:29 PM EDT
Astronomical Twilight 5:07 AM EDT 10:03 PM EDT
Moon 4:33 AM EDT (7/5) 6:28 PM EDT (7/5)
Length of Visible Light 14h 44m
Length of Day
13h 50m
Waning Crescent, 6% of the Moon is Illuminated
Jul 5
Waning Crescent
Jul 8
New
Jul 15
First Quarter
Jul 22
Full
Jul 29
Last Quarter

Hourly Weather History & Observations

Time (EDT) Temp. Heat Index Dew Point Humidity Pressure Visibility Wind Dir Wind Speed Gust Speed Precip Events Conditions
12:53 AM 75.0 °F - 71.1 °F 87% 30.14 in 10.0 mi East 4.6 mph - N/A   Clear
1:53 AM 75.9 °F - 71.1 °F 85% 30.12 in 10.0 mi ENE 4.6 mph - N/A   Clear
2:53 AM 75.9 °F - 72.0 °F 87% 30.10 in 10.0 mi East 5.8 mph - N/A   Clear
3:53 AM 75.9 °F - 73.0 °F 91% 30.09 in 10.0 mi East 5.8 mph - N/A   Clear
4:53 AM 75.9 °F - 73.9 °F 94% 30.08 in 10.0 mi East 4.6 mph - N/A   Clear
5:53 AM 75.9 °F - 73.9 °F 94% 30.09 in 8.0 mi ESE 5.8 mph - N/A   Clear
6:53 AM 77.0 °F - 73.9 °F 90% 30.11 in 10.0 mi ESE 10.4 mph - N/A   Scattered Clouds
7:53 AM 78.1 °F - 73.9 °F 87% 30.10 in 10.0 mi ESE 6.9 mph - N/A   Clear
8:53 AM 80.1 °F 85.1 °F 75.0 °F 85% 30.11 in 10.0 mi ESE 10.4 mph - N/A   Partly Cloudy
9:53 AM 82.9 °F 90.8 °F 75.9 °F 79% 30.12 in 10.0 mi ESE 10.4 mph 17.3 mph N/A   Partly Cloudy
10:14 AM 84.2 °F 92.3 °F 75.2 °F 74% 30.12 in 10.0 mi SE 12.7 mph 23.0 mph N/A   Mostly Cloudy
10:22 AM 84.2 °F 92.3 °F 75.2 °F 74% 30.12 in 10.0 mi ESE 13.8 mph 21.9 mph N/A   Scattered Clouds
10:53 AM 84.9 °F 93.3 °F 75.0 °F 72% 30.12 in 10.0 mi SE 17.3 mph 23.0 mph N/A   Mostly Cloudy
11:00 AM 84.2 °F 92.3 °F 75.2 °F 74% 30.12 in 10.0 mi ESE 17.3 mph 24.2 mph N/A   Scattered Clouds
11:53 AM 87.1 °F 94.5 °F 73.0 °F 63% 30.12 in 10.0 mi SE 15.0 mph - N/A   Scattered Clouds
12:53 PM 88.0 °F 95.6 °F 73.0 °F 61% 30.11 in 10.0 mi ESE 16.1 mph - N/A   Partly Cloudy
1:53 PM 89.1 °F 98.0 °F 73.9 °F 61% 30.09 in 10.0 mi ESE 16.1 mph 20.7 mph 0.00 in   Mostly Cloudy
2:07 PM 89.6 °F 98.2 °F 73.4 °F 59% 30.08 in 10.0 mi ESE 17.3 mph 21.9 mph N/A Thunderstorm Scattered Clouds
2:25 PM 87.8 °F 97.6 °F 75.2 °F 66% 30.08 in 10.0 mi ESE 8.1 mph - 0.00 in Rain Light Rain
2:39 PM 82.4 °F 89.5 °F 75.2 °F 79% 30.09 in 10.0 mi South 13.8 mph - 0.01 in Thunderstorm Mostly Cloudy
2:46 PM 84.2 °F 92.3 °F 75.2 °F 74% 30.08 in 10.0 mi SSW 10.4 mph - 0.01 in Thunderstorm Mostly Cloudy
2:53 PM 82.0 °F 87.9 °F 73.9 °F 76% 30.10 in 10.0 mi SE 28.8 mph 41.4 mph 0.01 in Thunderstorm Mostly Cloudy
3:02 PM 77.0 °F - 71.6 °F 83% 30.12 in 9.0 mi SE 23.0 mph 44.9 mph 0.00 in Rain , Thunderstorm Light Rain
3:16 PM 75.2 °F - 73.4 °F 94% 30.12 in 10.0 mi SE 23.0 mph 35.7 mph 0.01 in Rain , Thunderstorm Light Thunderstorms and Rain
3:27 PM 75.2 °F - 73.4 °F 94% 30.13 in 3.0 mi SSE 16.1 mph 29.9 mph 0.06 in Rain , Thunderstorm Heavy Thunderstorms and Rain
3:36 PM 75.2 °F - 73.4 °F 94% 30.12 in 3.0 mi SSE 20.7 mph 26.5 mph 0.07 in Rain , Thunderstorm Light Rain
3:53 PM 75.0 °F - 73.0 °F 94% 30.10 in 6.0 mi SSE 11.5 mph - 0.09 in Rain , Thunderstorm Light Rain
4:00 PM 75.2 °F - 73.4 °F 94% 30.09 in 6.0 mi SE 9.2 mph - 0.01 in Rain Light Rain
4:53 PM 75.0 °F - 72.0 °F 90% 30.10 in 10.0 mi SSE 3.5 mph - 0.03 in   Partly Cloudy
5:53 PM 78.1 °F - 75.0 °F 90% 30.08 in 10.0 mi Calm Calm - N/A   Scattered Clouds
6:53 PM 79.0 °F - 75.0 °F 88% 30.08 in 6.0 mi East 3.5 mph - 0.01 in Rain Light Rain
7:53 PM 79.0 °F - 75.9 °F 90% 30.09 in 10.0 mi Calm Calm - 0.01 in   Clear
8:53 PM 79.0 °F - 75.9 °F 90% 30.09 in 10.0 mi ESE 9.2 mph - 0.00 in Rain Light Rain
9:53 PM 78.1 °F - 75.0 °F 90% 30.10 in 10.0 mi ESE 4.6 mph - N/A   Scattered Clouds
10:53 PM 78.1 °F - 75.0 °F 90% 30.12 in 10.0 mi SE 4.6 mph - 0.01 in   Scattered Clouds
11:53 PM 77.0 °F - 73.9 °F 90% 30.12 in 10.0 mi SSE 5.8 mph - N/A   Partly Cloudy